Tracking 22881 objects as of 19-Apr-2021
HD Live streaming from Space Station
objects crossing your sky now

STARLINK-1928

Track STARLINK-1928 now!
10-day predictions
STARLINK-1928 is classified as:


NORAD ID: 46758
Int'l Code: 2020-074V
Perigee: 553.7 km
Apogee: 555.0 km
Inclination: 53.1 °
Period: 95.6 minutes
Semi major axis: 6925 km
RCS: Unknown
Launch date: October 24, 2020
Source: United States (US)
Launch site: AIR FORCE EASTERN TEST RANGE (AFETR)
aabbcc
Your satellite tracking list
Your tracking list is empty




NASA's NSSDC Master Catalog

Two Line Element Set (TLE):
1 46758U 20074V   21109.32994681 -.00001903  00000-0 -10894-3 0  9998
2 46758  53.0570  61.4093 0000908  54.3021 305.8052 15.06395620 27534
Source of the keplerian elements: AFSPC